[Iaude] MPEC T114: 2023 TR3 [a=1.72,e=0.39,i=22.9,H=24.2]
    mpec at marsden.cfa.harvard.edu 
    mpec at marsden.cfa.harvard.edu
       
    Mon Oct  9 02:04:42 EDT 2023
    
    
  
M.P.E.C. 2023-T114                              Issued 2023 October 9, 06:03 UT
     The Minor Planet Electronic Circulars contain information on unusual
         minor planets, routine data on comets and natural satellites,
         and occasional editorial announcements.  They are published
    on behalf of Division F of the International Astronomical Union by the
          Minor Planet Center, Smithsonian Astrophysical Observatory,
                          Cambridge, MA 02138, U.S.A.
			  
             Prepared using the Tamkin Foundation Computer Network
                              MPC at CFA.HARVARD.EDU
            URL https://www.minorplanetcenter.net/    ISSN 1523-6714
                                    2023 TR3                                    
Observations:
     K23T03R  C2023 10 04.25701 23 15 39.93 +37 13 15.0          20.7 GVET114G96
     K23T03R  C2023 10 04.26268 23 15 42.38 +37 12 29.2          20.5 GVET114G96
     K23T03R  C2023 10 08.29599523 51 11.853+25 13 34.19               VET114F51
     K23T03R* C2023 10 08.29731723 51 12.584+25 13 15.74         19.87wXET114F52
     K23T03R  C2023 10 08.30754623 51 18.185+25 10 56.15         19.88wXET114F52
     K23T03R  C2023 10 08.31780723 51 23.803+25 08 35.59         19.82wXET114F52
     K23T03R  C2023 10 08.32808423 51 29.400+25 06 14.83         19.98wXET114F52
     K23T03R  C2023 10 08.56073123 53 38.021+24 11 31.78               VET114F51
     K23T03R  C2023 10 08.56111423 53 38.264+24 11 26.29         20.06GVET114F51
     K23T03R KC2023 10 08.77730523 55 58.88 +23 19 00.4          20.0 GVET114M60
     K23T03R KC2023 10 08.77870823 55 59.70 +23 18 40.2          20.0 GVET114M60
     K23T03R KC2023 10 08.78656623 56 04.25 +23 16 45.3          20.2 GVET114M60
     K23T03R KC2023 10 08.78841323 56 05.33 +23 16 18.8          20.3 GVET114M60
     K23T03R KC2023 10 08.79615323 56 09.955+23 14 10.93         19.7 GVET114J95
     K23T03R KC2023 10 08.80142323 56 13.061+23 12 54.79         19.7 GVET114J95
     K23T03R KC2023 10 08.80752823 56 16.658+23 11 25.62         19.7 GVET114J95
     K23T03R KC2023 10 08.80910123 56 17.32 +23 11 19.5          19.5 GVET114104
     K23T03R KC2023 10 08.81249023 56 19.505+23 10 14.41         19.4 GVET114J95
     K23T03R KC2023 10 08.81296523 56 19.54 +23 10 23.6          19.7 GVET114104
     K23T03R KC2023 10 08.81634723 56 21.48 +23 09 34.4          19.4 GVET114104
     K23T03R KC2023 10 08.82508023 56 26.16 +23 07 25.6          19.7 GXET114595
     K23T03R KC2023 10 08.82855123 56 29.48 +23 06 34.1          19.0 GXET114958
     K23T03R KC2023 10 08.83565323 56 32.24 +23 04 51.0          19.7 GXET114595
     K23T03R KC2023 10 08.83574123 56 33.50 +23 04 49.5          19.0 GXET114958
     K23T03R KC2023 10 08.83575423 56 32.26 +23 04 50.3          19.6 GVET114L01
     K23T03R KC2023 10 08.83724023 56 33.12 +23 04 28.4          19.8 GVET114L01
     K23T03R KC2023 10 08.83896923 56 34.11 +23 04 03.2          19.7 GVET114L01
     K23T03R KC2023 10 08.84293023 56 37.65 +23 03 03.8          19.5 GXET114958
     K23T03R KC2023 10 08.84727423 56 39.31 +23 01 59.6                VET114204
     K23T03R KC2023 10 08.84936723 56 40.09 +23 01 30.8          19.8 GXET114595
     K23T03R KB2023 10 08.85158023 56 42.59 +23 00 56.5          20.1 GVET114I93
     K23T03R KB2023 10 08.85610023 56 45.18 +22 59 50.7          20.1 GVET114I93
     K23T03R KC2023 10 08.85660323 56 44.66 +22 59 42.9                VET114204
     K23T03R KB2023 10 08.86052723 56 47.74 +22 58 46.1          19.3 GVET114I93
     K23T03R KC2023 10 08.86593123 56 50.00 +22 57 26.4          19.5 GVET114204
     K23T03R KC2023 10 08.87197523 56 53.374+22 56 00.22         19.4 GVET114K63
     K23T03R KC2023 10 08.88004723 56 57.947+22 54 01.90         20.0 GVET114K63
     K23T03R KB2023 10 08.88305223 56 59.760+22 53 06.11         19.6 GXET114B72
     K23T03R KB2023 10 08.88505 23 57 02.059+22 52 54.23         19.9 VZET114J57
     K23T03R KC2023 10 08.88556123 57 01.104+22 52 41.01         19.6 GVET114K63
     K23T03R KB2023 10 08.88853 23 57 04.037+22 52 02.46         20.8 VZET114J57
     K23T03R KB2023 10 08.89197 23 57 05.993+22 51 12.53         19.9 VZET114J57
     K23T03R KB2023 10 08.89222223 57 04.984+22 50 51.15         19.5 GXET114B72
     K23T03R KB2023 10 08.90148123 57 10.341+22 48 34.32         19.5 GXET114B72
     K23T03R KB2023 10 08.96158023 57 46.221+22 33 56.63         19.6 VZET114Y89
     K23T03R KB2023 10 08.96524923 57 48.316+22 33 02.00         19.5 VZET114Y89
     K23T03R KB2023 10 08.96891823 57 50.371+22 32 07.48         20.1 VZET114Y89
Observer details:
104 San Marcello Pistoiese.  Observers P. Bacci, M. Maestripieri.  Measurers
    P. Bacci, L. Tesi, G. Fagioli.  0.60-m F4 Reflector + CCD.
204 Schiaparelli Observatory.  Observers L. Buzzi, G. Galli.  0.84-m f/3.5
    reflector + CCD.
595 Farra d'Isonzo.  Observer E. Pettarin.  0.61-m f/4.5 reflector + CCD.
958 Observatoire de Dax.  Observers P. Dupouy, J. B. de Vanssay.  Measurer P.
    Dupouy.  0.43-m f/2.7 Reflector + CCD.
B72 Soerth.  Observer B. Koch.  0.36-m f/7.6 reflector + CMO.
F51 Pan-STARRS 1, Haleakala.  Observers J. Bulger, K. Chambers, T. Lowe, P.
    Minguez, A. Schultz, I. Smith.  Measurers S. Chastel, J. Fairlamb, M.
    Huber, Y. Ramanjooloo, R. Wainscoat, R. Weryk.  1.8-m Ritchey-Chretien +
    CCD.
F52 Pan-STARRS 2, Haleakala.  Observers J. Bulger, T. Lowe, P. Minguez, A.
    Schultz, I. Smith.  Measurers K. Chambers, T. de Boer, J. Bulger, J.
    Fairlamb, H. Gao, M. Huber, C.-C. Lin, T. Lowe, E. Magnier, P. Minguez, Y.
    Ramanjooloo, A. Schultz, I. Smith, R. Wainscoat, R. Weryk.  1.8-m Ritchey-
    Chretien + CCD.
G96 Mt. Lemmon Survey.  Observer G. J. Leonard.  Measurers B. Gray, D. Rankin,
    F. C. Shelly.  1.5-m reflector + 10K CCD.
I93 St Pardon de Conques.  Observer F. Losse.  0.40-m f/3.7 reflector + CMO.
J57 Centro Astronomico Alto Turia, Valencia.  Observer A. Fornas.  Measurers
    A. Fornas, G. Fornas, E. Arce, V. Mas.  0.43-m f/6.8 Reflector 0.4m + CMO.
J95 Great Shefford.  Observer P. Birtwhistle.  0.41-m f/6.3 Schmidt-Cassegrain
    + CCD.
K63 G. Pascoli Observatory, Castelvecchio Pascoli.  Observer R. Bacci.  0.41-m
    f/3.75 0.41m f/3.2  Newton + CCD.
L01 Visnjan Observatory, Tican.  Observer K. Korlevic.  1.0-m f/2.9 reflector
    + CCD.
M60 Virgil Observatory, Loiano.  Observer A. Carbognani.  0.30-m f/4.0
    Reflector + CCD.
Y89 Proxima Centauri Observatory, Valdin.  Observer R. Hahn.  0.36-m f/2.0
    reflector + CMO.
Orbital elements:
2023 TR3                                                 Earth MOID = 0.0665 AU
Epoch 2023 Sept. 13.0 TT = JDT 2460200.5                Veres                   
M 339.68445              (2000.0)            P               Q                  
n   0.43753816     Peri.  197.87942     +0.81561376     -0.56567820             
a   1.7184046      Node   198.21411     +0.56692515     +0.82331180             
e   0.3879834      Incl.   22.89098     +0.11562900     -0.04653881             
P   2.25           H   24.26          G   0.15           U   9                  
Residuals in seconds of arc
231004 G96  0.1-  0.0     231008 104  0.2+  0.1-    231008 204  0.2+  0.2-
231004 G96  0.1+  0.1-    231008 J95  0.3-  0.2+    231008 I93  0.1+  0.5+
231008 F51  0.0   0.6+    231008 104  0.2+  0.2+    231008 204  0.2+  0.0
231008 F52  0.1+  0.2+    231008 104  0.1+  0.1+    231008 K63  0.5+  0.8-
231008 F52  0.0   0.2+    231008 595  0.0   0.8+    231008 K63  0.0   0.4-
231008 F52  0.2+  0.0     231008 958  0.7+  0.9+    231008 B72  0.4+  0.1-
231008 F52  0.0   0.2+    231008 595  0.2+  0.4+    231008 J57  0.0   0.2+
231008 F51  0.1-  0.1-    231008 958  1.1-  1.0+    231008 K63  0.2+  0.1-
231008 F51  0.2+  0.1-    231008 L01  0.4-  0.1+    231008 J57  0.1-  0.3-
231008 M60  0.2-  0.6+    231008 L01  0.3-  0.1-    231008 J57  0.1-  0.3+
231008 M60  0.1-  0.7+    231008 L01  0.3-  0.1-    231008 B72  0.2-  0.1+
231008 M60  0.0   0.7-    231008 958  1.0-  0.0     231008 B72  0.3+  0.0
231008 M60  0.1+  0.5-    231008 204  0.2+  0.1-    231008 Y89  0.1+  0.1-
231008 J95  0.3-  0.1-    231008 595  0.2+  0.7+    231008 Y89  0.1+  0.1-
231008 J95  0.0   0.1+    231008 I93  0.0   0.1+    231008 Y89  0.4-  0.1+
231008 J95  0.4+  0.6-    231008 I93  0.1-  0.4+
Ephemeris:
2023 TR3                 a,e,i = 1.72, 0.39, 23                  q = 1.0517
Date    TT    R. A. (2000) Decl.     Delta      r    Elong.  Phase     V
2023 09 09    21 47 27.0 +53 12 50   0.2832  1.1705   118.8    49.0    23.7
...
2023 09 24    22 18 50.2 +49 38 25   0.1727  1.1134   125.9    46.9    22.5
...
2023 10 02    22 59 23.5 +41 32 50   0.1174  1.0895   136.6    39.1    21.4
...
2023 10 08    23 48 14.8 +26 20 21   0.08328 1.0750   154.3    23.8    20.1
2023 10 09    23 58 08.8 +22 25 12   0.07893 1.0729   158.5    20.0    19.9
2023 10 10    00 08 31.4 +18 01 22   0.07517 1.0710   163.0    15.9    19.7
...
2023 10 16    01 18 20.7 -14 52 18   0.06918 1.0610   156.5    22.0    19.7
...
2023 10 24    02 50 56.0 -44 31 37   0.1022  1.0532   122.4    52.9    21.4
...
2023 11 08    04 33 32.2 -56 49 18   0.1998  1.0564   103.7    65.7    23.2
M. P. C. Staff               (C) Copyright 2023 MPC           M.P.E.C. 2023-T114
    
    
More information about the Iaude
mailing list